Weather History for Branson, MO

Change the Weather History Date:

Thursday, April 25, 2013

  Actual Average (KHRO) Record (KHRO)
Temperature  
Mean Temperature 50 °F 61 °F  
Max Temperature 68 °F 71 °F 88 °F (1939)
Min Temperature 32 °F 50 °F 23 °F (1910)
Degree Days  
Heating Degree Days 15 6  
Month to date heating degree days 216  
Since 1 July heating degree days 3896  
Cooling Degree Days 0 1  
Month to date cooling degree days 25  
Year to date cooling degree days 31  
Growing Degree Days 0 (Base 50)    
Moisture  
Dew Point 29 °F    
Average Humidity 51    
Maximum Humidity 87    
Minimum Humidity 21    
Precipitation  
Precipitation 0.00 in 0.16 in 4.04 in (2011)
Month to date precipitation 3.50  
Year to date precipitation 12.49  
Snow  
Snow 0.00 in 0.00 in - ()
Month to date snowfall 0.3  
Since 1 July snowfall 11.5  
Snow Depth -    
Sea Level Pressure  
Sea Level Pressure 30.31 in    
Wind  
Wind Speed 4 mph (SSW)    
Max Wind Speed 12 mph    
Max Gust Speed 17 mph    
Visibility 10 miles    
Events      
T = Trace of Precipitation, MM = Missing Value Source: NWS Daily Summary

Daily Weather History Graph

Daily Weather History Graph

Search for Another Location

Airport:

Trip Planner

Search our weather history database for the weather conditions in past years. The results will help you decide how hot, cold, wet, or windy it might be!

Date:

Astronomy

Apr. 25, 2013 Rise Set
Actual Time 6:25 AM CDT 7:56 PM CDT
Civil Twilight 5:58 AM CDT 8:23 PM CDT
Nautical Twilight 5:26 AM CDT 8:56 PM CDT
Astronomical Twilight 4:51 AM CDT 9:30 PM CDT
Moon 8:08 PM CDT (4/25) 6:09 AM CDT (4/25)
Length of Visible Light 14h 24m
Length of Day
13h 30m
Full, 100% of the Moon is Illuminated
Apr 25
Full
Apr 25
Full
May 2
Last Quarter
May 9
New
May 17
First Quarter

Hourly Weather History & Observations

Time (CDT) Temp. Windchill Dew Point Humidity Pressure Visibility Wind Dir Wind Speed Gust Speed Precip Events Conditions
12:15 AM 41.0 °F 39.0 °F 26.6 °F 57% 30.31 in 10.0 mi SW 3.5 mph - N/A   Clear
12:35 AM 39.2 °F 35.9 °F 26.6 °F 61% 30.32 in 10.0 mi SW 4.6 mph - N/A   Clear
12:55 AM 39.2 °F - 26.6 °F 61% 30.33 in 10.0 mi Calm Calm - N/A   Clear
1:15 AM 37.4 °F 34.9 °F 26.6 °F 65% 30.33 in 10.0 mi SW 3.5 mph - N/A   Clear
1:35 AM 37.4 °F 34.9 °F 26.6 °F 65% 30.32 in 10.0 mi SW 3.5 mph - N/A   Clear
1:55 AM 37.4 °F 34.9 °F 26.6 °F 65% 30.32 in 10.0 mi WSW 3.5 mph - N/A   Clear
2:15 AM 37.4 °F 34.9 °F 26.6 °F 65% 30.31 in 10.0 mi SW 3.5 mph - N/A   Clear
2:35 AM 37.4 °F 33.8 °F 26.6 °F 65% 30.31 in 10.0 mi SW 4.6 mph - N/A   Clear
2:55 AM 37.4 °F 33.8 °F 26.6 °F 65% 30.30 in 10.0 mi SW 4.6 mph - N/A   Clear
3:15 AM 37.4 °F 34.9 °F 26.6 °F 65% 30.29 in 10.0 mi South 3.5 mph - N/A   Clear
3:35 AM 37.4 °F 34.9 °F 26.6 °F 65% 30.29 in 10.0 mi South 3.5 mph - N/A   Clear
3:55 AM 37.4 °F 34.9 °F 26.6 °F 65% 30.29 in 10.0 mi SW 3.5 mph - N/A   Clear
4:15 AM 37.4 °F 34.9 °F 26.6 °F 65% 30.30 in 10.0 mi SW 3.5 mph - N/A   Clear
4:35 AM 37.4 °F 34.9 °F 26.6 °F 65% 30.30 in 10.0 mi SSW 3.5 mph - N/A   Clear
4:55 AM 37.4 °F 34.9 °F 26.6 °F 65% 30.30 in 10.0 mi WSW 3.5 mph - N/A   Clear
5:15 AM 32.0 °F 28.7 °F 26.6 °F 80% 30.31 in 10.0 mi WNW 3.5 mph - N/A   Clear
5:35 AM 33.8 °F - 26.6 °F 75% 30.32 in 10.0 mi Calm Calm - N/A   Clear
5:55 AM 32.0 °F 27.5 °F 28.4 °F 87% 30.32 in 10.0 mi SW 4.6 mph - N/A   Clear
6:15 AM 33.8 °F 30.8 °F 26.6 °F 75% 30.33 in 10.0 mi WSW 3.5 mph - N/A   Clear
6:35 AM 35.6 °F 32.8 °F 28.4 °F 75% 30.33 in 10.0 mi WSW 3.5 mph - N/A   Clear
6:45 AM 35.6 °F - 28.4 °F 75% 30.33 in 10.0 mi Calm Calm - N/A   Clear
7:55 AM 41.0 °F - 28.4 °F 61% 30.36 in 10.0 mi Calm Calm - N/A   Clear
8:55 AM 46.4 °F - 26.6 °F 46% 30.37 in 10.0 mi Calm Calm - N/A   Clear
9:46 AM 51.8 °F - 28.4 °F 41% 30.38 in 10.0 mi West 5.8 mph - N/A   Clear
10:45 AM 55.4 °F - 26.6 °F 33% 30.38 in 10.0 mi NW 5.8 mph - N/A   Clear
11:45 AM 59.0 °F - 28.4 °F 31% 30.37 in 10.0 mi South 3.5 mph - N/A   Clear
12:50 PM 62.6 °F - 24.8 °F 24% 30.35 in 10.0 mi WNW 9.2 mph - N/A   Clear
1:58 PM 64.4 °F - 26.6 °F 24% 30.33 in 10.0 mi North 4.6 mph - N/A   Clear
2:58 PM 66.2 °F - 28.4 °F 24% 30.32 in 10.0 mi WNW 4.6 mph - N/A   Clear
3:45 PM 66.2 °F - 26.6 °F 23% 30.30 in 10.0 mi Calm Calm - N/A   Mostly Cloudy
4:50 PM 68.0 °F - 26.6 °F 21% 30.27 in 10.0 mi WSW 5.8 mph - N/A   Mostly Cloudy
5:54 PM 66.2 °F - 28.4 °F 24% 30.27 in 10.0 mi SE 6.9 mph - N/A   Mostly Cloudy
7:56 PM 60.8 °F - 32.0 °F 34% 30.26 in 10.0 mi ESE 6.9 mph - N/A   Overcast
8:45 PM 59.0 °F - 32.0 °F 36% 30.26 in 10.0 mi ESE 6.9 mph - N/A   Clear
9:15 PM 59.0 °F - 32.0 °F 36% 30.26 in 10.0 mi SE 9.2 mph - N/A   Partly Cloudy
9:35 PM 59.0 °F - 32.0 °F 36% 30.26 in 10.0 mi SSE 6.9 mph - N/A   Partly Cloudy
9:55 PM 59.0 °F - 32.0 °F 36% 30.28 in 10.0 mi SSE 4.6 mph - N/A   Scattered Clouds
10:15 PM 59.0 °F - 33.8 °F 39% 30.29 in 10.0 mi SSE 4.6 mph - N/A   Overcast
10:35 PM 59.0 °F - 33.8 °F 39% 30.28 in 10.0 mi SSE 5.8 mph - N/A   Overcast
10:55 PM 57.2 °F - 35.6 °F 44% 30.27 in 10.0 mi SSE 5.8 mph - N/A   Scattered Clouds
11:15 PM 59.0 °F - 33.8 °F 39% 30.27 in 10.0 mi SSE 9.2 mph - N/A   Clear
11:35 PM 57.2 °F - 33.8 °F 41% 30.26 in 10.0 mi SSE 11.5 mph 17.3 mph N/A   Scattered Clouds
11:55 PM 57.2 °F - 33.8 °F 41% 30.26 in 10.0 mi SSE 9.2 mph - N/A   Mostly Cloudy